Regional Weather Roundup
Issued by NWS Jackson, KY

Home | Current Version | Previous Version | Graphics & Text | Print | Product List | Glossary Off
Versions: 1 2 3 4 5 6 7 8 9 10 11 12 13 14 15 16 17 18 19 20 21 22 23 24 25 26 27 28 29 30 31 32 33 34 35 36 37 38 39 40 41 42 43 44 45 46 47 48 49 50

000
ASUS43 KJKL 200310
RWRJKL

EAST KENTUCKY HOURLY WEATHER ROUNDUP
NATIONAL WEATHER SERVICE JACKSON KY
1100 PM EDT SAT AUG 19 2017

NOTE: "FAIR" INDICATES FEW OR NO CLOUDS BELOW 12,000 FEET WITH
NO SIGNIFICANT WEATHER AND/OR OBSTRUCTIONS TO VISIBILITY.

* THESE REPORTS ARE NOT UNDER NWS QUALITY CONTROL AND MAY NOT
  REPORT WEATHER SUCH AS PRECIPITATION AND FOG.

KYZ079-080-083-085-087-088-110-112-115-119-120-200400
...EASTERN KENTUCKY...

CITY           SKY/WX    TMP DP  RH WIND       PRES   REMARKS
JACKSON        CLEAR     73  67  81 CALM      30.05R
LONDON         CLEAR     72  69  90 CALM      30.05R
SOMERSET*      CLEAR     68  68 100 CALM      30.05R
MONTICELLO*    CLEAR     67  67 100 W10       30.06R
WILLIAMSBURG*  CLEAR     70  70 100 CALM      30.05R
MIDDLESBORO*   CLEAR     71  68  90 CALM      30.07R
HARLAN APT*    CLEAR     68  66  94 CALM      30.08R
PIKE CO APT*     N/A     73  69  86 CALM      30.06R
BIG SANDY APT* CLEAR     73  71  94 CALM      30.04S
MOREHEAD APT*  PTCLDY    72  66  83 S5        30.04R
$$

KYZ035-036-041-042-044-050-067-078-099-200400
...CENTRAL KENTUCKY...

CITY           SKY/WX    TMP DP  RH WIND       PRES   REMARKS
MT STERLING*   CLEAR     72  68  88 SW3       30.05R
FLEMING/MASON* CLEAR     70  67  90 S3        30.03R
DANVILLE*      CLEAR     72  68  88 CALM      30.05R
LEXINGTON      CLEAR     75  66  73 S5        30.02R
FRANKFORT      CLEAR     72  67  84 CALM      30.00R
LOUISVILLE     PTCLDY    80  68  66 SW3       29.98R
LEBANON*         N/A     75  68  78 S7        30.02R
GLASGOW*       CLEAR     72  70  95 CALM      30.01R
BOWLING GREEN  CLEAR     77  69  76 CALM      30.00R
$$

KYZ091>093-OHZ055-061-077-WVZ005-015-034-035-042-200400
...SOUTHERN OHIO/WEST VIRGINIA...

CITY           SKY/WX    TMP DP  RH WIND       PRES   REMARKS
COVINGTON      PTCLDY    74  69  85 CALM      30.00R
COLUMBUS       CLEAR     71  66  84 E5        30.01R
DAYTON         CLEAR     71  60  68 CALM      30.03R
WILMINGTON     CLEAR     69  66  90 NE3       30.02R
HUNTINGTON     CLEAR     72  68  87 CALM      30.00R
CHARLESTON     CLEAR     71  68  90 CALM      30.02R
PINEVILLE*     CLEAR     67  65  96 MISG      30.13R
BECKLEY        CLEAR     66  62  87 CALM      30.11R
BLUEFIELD      CLEAR     67  59  75 SW6       30.14R
LOGAN CO APT*    N/A     72  68  88 CALM      30.06S
$$

VAZ002-007-008-TNZ017-027-036-066-071-200400
...SOUTHWEST VIRGINIA/EAST TENNESSEE...

CITY           SKY/WX    TMP DP  RH WIND       PRES   REMARKS
WISE*          CLEAR     68  61  77 CALM      30.15R
JONESVILLE*      N/A     68  68 100 CALM      30.09R
ABINGDON*      CLEAR     69  67  93 CALM      30.11R
BRISTOL        CLEAR     68  67  96 CALM      30.07R
MORRISTOWN*    CLEAR     70  68  94 CALM      30.05R
SEVIERVILLE*   CLEAR     72  64  78 CALM      30.04R
KNOXVILLE      CLEAR     74  66  76 CALM      30.03R
LAFOLLETTE*    CLEAR     72  70  94 CALM      30.09R
OAK RIDGE      PTCLDY    75  69  81 CALM      30.05R
CROSSVILLE     CLEAR     67  64  90 CALM      30.10R
NASHVILLE      PTCLDY    79  69  71 CALM      30.01R
$$

...KEY TO REMARKS...
VSB - VISIBILITY IN MILES
WCI - WIND CHILL INDEX
HX  - HEAT INDEX

$$



USA.gov is the U.S. government's official web portal to all federal, state and local government web resources and services.